[[{"header":{"parameterUnit":"m.s-1","parameterCategory":1,"la1":30.2991,"la2":30.254,"lo1":-89.0895,"lo2":-89.0444,"dy":0.0017,"dx":0.0017,"nx":28,"ny":28,"refTime":"2023-11-09T09:00:00:Z","depth":0,"parameterNumber":2,"parameterNumberName":"U-component_of_WINDS"},"data":[0,0,0,0,0,0,0,0,0,0,0,0,0,0,0,0,0,0,0,0,0,0,0,0,0,0,0,0,0,0,0,0,0,0,0,0,0,0,0,0,0,0,0,0,0,0,0,0,0,0,0,0,0,0,0,0,0,0,-3.3904,-3.3905,0,-3.4005,-3.4006,-3.4007,-3.4002,-3.4001,-3.3999,-3.3998,-3.4099,-3.4103,-3.4107,0,0,0,0,0,0,0,0,0,0,0,0,0,-3.3704,-3.3707,-3.3904,-3.3905,-3.3906,-3.4005,-3.4006,-3.4008,-3.4002,-3.4001,-3.3999,-3.3997,-3.4097,-3.4102,-3.4107,0,0,0,0,0,0,0,0,0,0,0,0,0,-3.3796,-3.3709,-3.3904,-3.3916,-3.3918,-3.4005,-3.4006,-3.4008,-3.4003,-3.4001,-3.3998,-3.3996,-3.4096,-3.4102,-3.4108,-3.4188,0,0,-3.4126,-3.4129,0,0,0,0,0,0,0,0,-3.3791,-3.3804,-3.3913,-3.3915,-3.3918,-3.3989,-3.3973,-3.4068,-3.4003,-3.397,-3.3998,-3.3995,-3.4064,-3.4072,-3.4096,-3.4193,-3.4197,-3.4127,-3.413,-3.4133,-3.4135,0,0,0,0,0,0,0,-3.3785,-3.3799,-3.3944,-3.3914,-3.3917,-3.3915,-3.3926,-3.3991,-3.4028,-3.3973,-3.3973,-3.3985,-3.4065,-3.409,-3.4098,-3.4199,-3.4126,-3.4132,-3.4136,-3.4138,-3.4367,-3.4369,0,0,0,0,0,0,-3.3776,-3.3794,-3.3941,-3.3947,-3.3848,-3.3921,-3.3933,-3.3968,-3.4027,-3.4034,-3.3987,-3.3985,-3.4081,-3.4091,-3.4102,-3.4199,-3.4133,-3.4139,-3.4142,-3.4364,-3.4367,-3.437,0,0,0,0,0,0,-3.3772,-3.3789,-3.3937,-3.3871,-3.3889,-3.3926,-3.3966,-3.3971,-3.3997,-3.4038,-3.4044,-3.4006,-3.408,-3.4093,-3.4167,-3.4203,-3.4141,-3.4147,-3.4361,-3.4365,-3.4368,-3.4395,0,0,0,0,0,0,-3.3766,-3.3788,-3.3819,-3.3871,-3.3893,-3.4001,-3.3969,-3.3975,-3.4008,-3.4005,-3.4058,-3.4064,-3.4079,-3.4158,-3.4173,-3.421,-3.4151,-3.4358,-3.4363,-3.4367,-3.4391,-3.4399,-3.4406,0,0,0,0,0,-3.3759,-3.3822,-3.3821,-3.3838,-3.3933,-3.4003,-3.4015,-3.4031,-3.401,-3.4042,-3.4068,-3.4062,-3.4197,-3.4165,-3.4182,-3.4222,-3.4356,-3.4362,-3.4367,-3.4388,-3.4398,-3.4406,0,0,0,0,0,0,-3.3772,-3.3829,-3.3828,-3.391,-3.3952,-3.4002,-3.4042,-3.4042,-3.4089,-3.4085,-3.4103,-3.4115,-3.4188,-3.4213,-3.4177,-3.4303,-3.4274,-3.4283,-3.4284,-3.4294,-3.4301,-3.4293,-3.4156,0,0,0,0,0,-3.3784,-3.3837,-3.3884,-3.3952,-3.3973,-3.4004,-3.4035,-3.4045,-3.4088,-3.4105,-3.4137,-3.4178,-3.423,-3.4263,-3.4313,-3.4396,-3.4406,-3.4431,-3.4439,-3.4445,-3.4452,-3.4496,-3.4508,-3.4388,-3.4388,-3.4388,0,0,-3.381,-3.3848,-3.388,-3.3956,-3.3989,-3.4042,-3.4019,-3.4076,-3.4116,-3.4113,-3.4185,-3.421,-3.4257,-3.4336,-3.4372,-3.4358,-3.4487,-3.4452,-3.4456,-3.446,-3.4503,-3.4514,-3.4524,-3.4392,-3.4391,-3.439,0,0,-3.3885,-3.392,-3.3979,-3.4014,-3.4065,-3.4085,-3.41,-3.4151,-3.4167,-3.424,-3.4239,-3.4286,-3.4375,-3.4409,-3.4437,-3.4526,-3.4522,-3.4542,-3.458,-3.4624,-3.4633,-3.4642,-3.4672,-3.4683,-3.4549,-3.4549,-3.4549,0,-3.391,-3.3991,-3.401,-3.4068,-3.4101,-3.4103,-3.4164,-3.4196,-3.426,-3.4282,-3.4267,-3.4378,-3.4411,-3.4496,-3.4518,-3.4542,-3.4558,-3.4535,-3.4631,-3.4639,-3.4647,-3.4676,-3.4688,-3.4551,-3.4551,-3.4551,-3.4551,0,-3.402,-3.4076,-3.4118,-3.4182,-3.4219,-3.4278,-3.4305,-3.4341,-3.4348,-3.437,-3.4443,-3.4482,-3.454,-3.4562,-3.4568,-3.4649,-3.4638,-3.4627,-3.4597,-3.466,-3.4688,-3.4699,-3.4554,-3.4553,-3.4553,-3.4552,0,0,-3.4103,-3.4177,-3.4192,-3.4221,-3.4278,-3.4321,-3.4381,-3.4438,-3.4468,-3.4513,-3.4562,-3.4638,-3.4628,-3.466,-3.4671,-3.471,-3.4776,-3.4693,-3.4694,-3.4706,-3.4866,-3.4873,-3.4886,-3.4775,-3.4777,-3.4779,-3.4861,0,-3.4182,-3.4287,-3.4306,-3.4398,-3.445,-3.4454,-3.4505,-3.4545,-3.4568,-3.4614,-3.4639,-3.4692,-3.4675,-3.4695,-3.4733,-3.476,-3.4808,-3.4754,-3.4819,-3.4821,-3.4805,-3.49,-3.4908,-3.4984,-3.4873,-3.4874,-3.4876,0,-3.4288,-3.4336,-3.4433,-3.4484,-3.4506,-3.4552,-3.4606,-3.4652,-3.4698,-3.4711,-3.4749,-3.4755,-3.4816,-3.4786,-3.4869,-3.4832,-3.486,-3.4878,-3.4881,-3.4886,-3.4851,-3.4906,-3.5009,-3.5019,-3.4893,-3.4892,-3.4891,0,-3.4337,-3.4427,-3.4496,-3.4521,-3.4582,-3.4614,-3.4641,-3.4685,-3.4718,-3.4766,-3.4787,-3.4841,-3.487,-3.4911,-3.4932,-3.4908,-3.5014,-3.4985,-3.5026,-3.5025,-3.5046,-3.5044,-3.5152,-3.5067,-3.5067,-3.5067,-3.5066,0,-3.4422,-3.4481,-3.4519,-3.4561,-3.4627,-3.4649,-3.4714,-3.474,-3.4779,-3.4826,-3.4833,-3.4877,-3.4903,-3.495,-3.4967,-3.5033,-3.5047,-3.5058,-3.5062,-3.5057,-3.5055,-3.5074,-3.5068,-3.507,-3.5069,-3.5069,-3.5068,0,-3.4487,-3.4515,-3.4591,-3.4643,-3.4658,-3.4704,-3.4748,-3.479,-3.4813,-3.4872,-3.4888,-3.4924,-3.498,-3.5006,-3.5075,-3.5086,-3.5161,-3.5162,-3.5146,-3.5147,-3.5185,-3.518,-3.5307,-3.5325,-3.523,-3.5231,-3.5231,0,-3.4538,-3.4583,-3.4641,-3.4674,-3.4702,-3.4754,-3.4789,-3.4812,-3.4848,-3.4904,-3.4938,-3.4995,-3.5042,-3.5132,-3.5164,-3.5217,-3.5218,-3.5259,-3.5225,-3.5219,-3.5216,-3.5213,-3.5217,-3.5264,-3.5265,-3.5266,-3.5266,0,-3.4626,-3.4638,-3.4688,-3.4743,-3.4784,-3.4828,-3.4872,-3.4898,-3.4928,-3.4968,-3.5026,-3.5062,-3.5134,-3.519,-3.5246,-3.5273,-3.5274,-3.5277,-3.5289,-3.5283,-3.5271,-3.5277,-3.516,-3.5273,-3.5273,-3.5272,-3.5272,-3.5271,-3.4684,-3.4725,-3.4772,-3.4827,-3.4863,-3.4903,-3.4945,-3.4974,-3.5023,-3.5083,-3.5095,-3.5157,-3.5202,-3.5277,-3.5306,-3.5354,-3.5344,-3.5362,-3.5366,-3.5369,-3.5371,-3.5265,-3.5365,-3.5364,-3.5364,-3.5364,-3.5364,0,-3.4771,-3.4802,-3.4853,-3.4914,-3.4957,-3.4957,-3.5005,-3.5041,-3.5096,-3.5139,-3.5185,-3.5252,-3.5307,-3.5344,-3.5399,-3.5431,-3.5433,-3.5444,-3.5441,-3.5447,-3.5377,-3.5361,-3.5442,-3.5442,-3.5442,-3.5442,-3.5441,-3.5441,-3.4821,-3.4889,-3.4907,-3.4993,-3.5023,-3.5084,-3.5112,-3.5149,-3.5183,-3.5258,-3.5304,-3.5329,-3.5369,-3.5427,-3.5478,-3.5487,-3.5506,-3.5518,-3.5527,-3.546,-3.5452,-3.5444,-3.5429,-3.5522,-3.5523,-3.5592,-3.5593,-3.5593]},{"header":{"parameterUnit":"m.s-1","parameterCategory":1,"la1":30.2991,"la2":30.254,"lo1":-89.0895,"lo2":-89.0444,"dy":0.0017,"dx":0.0017,"nx":28,"ny":28,"refTime":"2023-11-09T09:00:00:Z","depth":0,"parameterNumber":3,"parameterNumberName":"V-component_of_WINDS"},"data":[0,0,0,0,0,0,0,0,0,0,0,0,0,0,0,0,0,0,0,0,0,0,0,0,0,0,0,0,0,0,0,0,0,0,0,0,0,0,0,0,0,0,0,0,0,0,0,0,0,0,0,0,0,0,0,0,0,0,2.1182,2.1184,0,2.1357,2.1359,2.1361,2.1407,2.1406,2.1405,2.1404,2.1576,2.1581,2.1587,0,0,0,0,0,0,0,0,0,0,0,0,0,2.0884,2.0889,2.1182,2.1184,2.1187,2.1357,2.1359,2.1362,2.1407,2.1406,2.1405,2.1404,2.1574,2.158,2.1587,0,0,0,0,0,0,0,0,0,0,0,0,0,2.1031,2.0891,2.1182,2.123,2.1236,2.1357,2.1359,2.1362,2.1408,2.1406,2.1405,2.1403,2.1572,2.158,2.1588,2.167,0,0,2.1613,2.1617,0,0,0,0,0,0,0,0,2.1023,2.1042,2.1221,2.1227,2.1234,2.1359,2.1317,2.1465,2.1408,2.1342,2.1404,2.1402,2.1504,2.1518,2.1554,2.1678,2.1686,2.1614,2.1619,2.1623,2.1625,0,0,0,0,0,0,0,2.1012,2.1035,2.1251,2.1223,2.1232,2.1242,2.1261,2.1345,2.143,2.1348,2.1352,2.1372,2.1508,2.1546,2.1558,2.1688,2.1614,2.1621,2.1626,2.163,2.1893,2.1895,0,0,0,0,0,0,2.0995,2.1026,2.1246,2.1257,2.1123,2.1248,2.127,2.132,2.1429,2.1444,2.1373,2.1374,2.1533,2.1549,2.1565,2.1671,2.1623,2.163,2.1635,2.1891,2.1893,2.1895,0,0,0,0,0,0,2.0988,2.1014,2.1239,2.1143,2.1172,2.1255,2.1311,2.1325,2.1363,2.1448,2.1463,2.1397,2.1532,2.1553,2.1645,2.1677,2.1634,2.1642,2.1888,2.1891,2.1894,2.1882,0,0,0,0,0,0,2.0979,2.1011,2.1044,2.1143,2.1177,2.1317,2.1313,2.1329,2.1378,2.138,2.1475,2.1489,2.1532,2.1633,2.1653,2.1688,2.1648,2.1886,2.189,2.1893,2.188,2.1885,2.1888,0,0,0,0,0,2.0969,2.1031,2.1045,2.1072,2.122,2.1319,2.1338,2.1389,2.1381,2.1414,2.147,2.1486,2.1671,2.1642,2.1665,2.1703,2.1884,2.1889,2.1893,2.1878,2.1884,2.1888,0,0,0,0,0,0,2.093,2.1045,2.1062,2.1159,2.1229,2.1327,2.137,2.1393,2.1465,2.1464,2.1522,2.1543,2.1632,2.1676,2.1642,2.179,2.1777,2.1787,2.1758,2.1764,2.1768,2.1755,2.1655,0,0,0,0,0,2.0933,2.1006,2.1102,2.1178,2.1213,2.1286,2.133,2.1365,2.1439,2.1468,2.153,2.1599,2.1674,2.1721,2.1794,2.1887,2.1909,2.1925,2.1929,2.1932,2.1939,2.1995,2.2004,2.191,2.191,2.191,0,0,2.0939,2.1011,2.1053,2.1172,2.1231,2.1304,2.131,2.1386,2.1441,2.1478,2.1571,2.1619,2.1701,2.1795,2.1839,2.1835,2.1971,2.1938,2.1939,2.1945,2.2001,2.201,2.2017,2.1913,2.1913,2.1912,0,0,2.0989,2.105,2.1122,2.1182,2.1273,2.1322,2.1339,2.1435,2.1469,2.1564,2.1595,2.166,2.1785,2.1844,2.189,2.1967,2.1985,2.1988,2.2009,2.2063,2.2071,2.2078,2.2107,2.2117,2.1996,2.1996,2.1996,0,2.0984,2.1098,2.1155,2.1233,2.1285,2.1326,2.14,2.1454,2.1562,2.1597,2.1591,2.1754,2.1811,2.1921,2.1941,2.1976,2.1998,2.1978,2.2065,2.2073,2.208,2.2109,2.2119,2.1996,2.1996,2.1996,2.1996,0,2.109,2.1168,2.1215,2.1324,2.1381,2.1455,2.1523,2.1574,2.1604,2.1654,2.1751,2.1822,2.1912,2.194,2.1968,2.2055,2.205,2.2054,2.2042,2.2088,2.2116,2.2127,2.1996,2.1996,2.1996,2.1996,0,0,2.1116,2.126,2.1276,2.1328,2.1433,2.1494,2.1571,2.1662,2.1706,2.178,2.1846,2.1954,2.1961,2.2013,2.2048,2.2095,2.2155,2.2094,2.2097,2.2104,2.2258,2.2255,2.2267,2.2168,2.217,2.2172,2.2252,0,2.118,2.1323,2.1379,2.1494,2.1569,2.1611,2.1679,2.175,2.1799,2.1868,2.1921,2.1998,2.1999,2.2032,2.208,2.2137,2.2186,2.2132,2.223,2.2233,2.2209,2.2281,2.2278,2.2349,2.2263,2.2265,2.2266,0,2.1273,2.1353,2.1477,2.1578,2.1611,2.1671,2.1761,2.1827,2.191,2.1942,2.2003,2.2037,2.2119,2.2103,2.2217,2.2179,2.2223,2.2257,2.2261,2.2273,2.2252,2.2296,2.2373,2.2385,2.2283,2.2282,2.2281,0,2.1283,2.1421,2.1515,2.1557,2.1676,2.1717,2.1768,2.185,2.1902,2.1981,2.2016,2.2101,2.2148,2.2213,2.2269,2.2251,2.2379,2.2366,2.2408,2.2407,2.2433,2.2431,2.252,2.2459,2.2459,2.2459,2.2458,0,2.1349,2.1423,2.1522,2.1579,2.1664,2.1728,2.181,2.1864,2.1937,2.2005,2.2045,2.2107,2.2177,2.2249,2.2293,2.2383,2.2402,2.2431,2.2442,2.2428,2.2425,2.2458,2.2455,2.2462,2.2461,2.246,2.246,0,2.1374,2.1443,2.1548,2.1654,2.1682,2.174,2.183,2.1888,2.194,2.2026,2.205,2.2131,2.2218,2.2281,2.2391,2.2421,2.2518,2.2528,2.2491,2.2497,2.2536,2.2532,2.265,2.267,2.2594,2.2595,2.2595,0,2.1412,2.1471,2.1585,2.1636,2.1688,2.1768,2.1824,2.1889,2.1945,2.2046,2.2091,2.2182,2.2258,2.2394,2.2462,2.2548,2.2561,2.2597,2.2574,2.256,2.2564,2.2561,2.2568,2.26,2.26,2.2601,2.2601,0,2.1473,2.1505,2.1585,2.1679,2.1746,2.1821,2.1897,2.1936,2.2014,2.2075,2.2167,2.2226,2.2343,2.2432,2.2526,2.2576,2.2602,2.2608,2.2623,2.261,2.2587,2.2602,2.2502,2.2605,2.2605,2.2604,2.2604,2.2604,2.1507,2.1563,2.1654,2.1743,2.1808,2.188,2.1941,2.2003,2.2081,2.2184,2.2217,2.2312,2.2396,2.2525,2.2577,2.2652,2.265,2.2671,2.2676,2.2681,2.2681,2.2575,2.2668,2.2668,2.2668,2.2668,2.2668,0,2.1572,2.1634,2.1715,2.1823,2.1894,2.1916,2.2003,2.2059,2.2144,2.2222,2.2298,2.2404,2.2493,2.2569,2.2661,2.2706,2.2721,2.2728,2.2726,2.2738,2.2676,2.2655,2.2715,2.2715,2.2715,2.2715,2.2715,2.2715,2.1614,2.1712,2.1756,2.1887,2.1948,2.2045,2.2092,2.2159,2.2222,2.234,2.2416,2.2467,2.2544,2.2643,2.2725,2.2745,2.2778,2.2783,2.2806,2.2747,2.2741,2.2736,2.2717,2.2789,2.2789,2.2862,2.2862,2.2863]}]]